User: anonymous   Login
Location: Chenango Forks
(42.2242°N, 75.8278°W)
Time: 09:03:37
(UTC-04:00)
Language:

Okean 3 Rocket - Orbit

View from above orbital plane
View from above orbital plane
View from above satellite
View from above satellite

Ground track
Ground track

The orbit data is extracted from the following two-line orbital elements,

1 21398U 91039B   15115.95106944  .00000617  00000-0  79401-4 0  9995
2 21398 082.5240 235.1684 0020502 226.8784 269.0693 14.79447194288093
Epoch (UTC): 25 April 2015 22:49:32
Eccentricity: 0.0020502
inclination: 82.5240°
perigee height: 617 km
apogee height: 645 km
right ascension of ascending node: 235.1684°
argument of perigee: 226.8784°
revolutions per day: 14.79447194
mean anomaly at epoch: 269.0693°
orbit number at epoch: 28809

The dashed part of the orbit path shows where the satellite is in the earth's shadow,  

DLR